COSMOS 2251 DEB, 33975

Orbit data source: Space-Track

COSMOS 2251 DEB, 33975 is space debris in LEO originally from a launch on Wed, 16 Jun 1993 UTC launched from the Plesetsk Missile And Space Complex (PKMTR). The debris from Iridium 33, an American commercial communications satellite, has been tracked extensively since its accidental collision with the defunct Russian satellite Cosmos 2251 in 2009. This event, occurring at high speed in low Earth orbit (LEO), generated thousands of pieces of space debris, significantly increasing the risk of further collisions. The Iridium 33 debris cloud has impacted space traffic management and orbital debris mitigation strategies, making it a subject of ongoing study in space situational awareness.

Loading next visibility...
Identifier
33975, 1993-036FJ
Orbit
LEO
Country
Flag of CISCIS
Related business
Manufacturer
Unknown
Mission
Spacecraft
Bus & Motor
Unknown
Mass
Unknown
Launch date (UTC)
1993-06-16 (33 years ago)
Launch vehicle
Unknown
Launch site
Plesetsk Missile And Space Complex (PKMTR)
Object type
Payload
Rocket body
Debris
Shape & HBR
Unknown shape, 0.1 m
Radar Cross Section
Medium (>0.1 m² and <1 m²)

Expand to show TLE details & history
Last TLE update: 12 hours ago

TLE from 12 hours ago
0 COSMOS 2251 DEB
1 33975U 93036FJ  26177.77958306  .00000419  00000-0  25440-3 0  9998
2 33975  73.8008  99.7568 0191071 198.7957 160.6058 14.00794348885742
Epoch: 2026-06-26T18:42Z
TLE epoch observation values (Epoch: 2026-06-26T18:42:35.976Z)
Latitude
Longitude
-95.79629°
Altitude
1,024.919 km
Speed
7.273 km/s
True Right ascension
06h 39m 01s
True Declination
0° 00' 00"
Sunlit
Object was in daylight at epoch
Visualization orbit readout
Latitude
Unknown
Longitude
Unknown
Altitude
Unknown
Speed
Unknown
Apparent Right ascension
Unknown
Apparent Declination
Unknown
Sunlit
N/A
Visualization observer readout
Local Sidereal Time
17:54:08
Azimuth
Unknown
Elevation
Unknown
Doppler factor
Unknown
Orbital elements
Apogee altitude
1,027.576 km
Perigee altitude
749.879 km
Semi-major axis
7,266.864 km
Eccentricity
0.01911
Inclination
73.8008°
RAAN
99.7568°
Arg. of periapsis
198.7957°
True anomaly
161.31681°
Mean anomaly
160.6058°
Eccentric anomaly
160.96289°
Mean motion
3.50367 °/min
Orbital period
102.75 mins
BSTAR
0.0002544

Documentation

Showing up to 5 results
|